Theta_e
265 263 263 261 261 263 263 264 265 265 265 266 267 268 270 270 272 273 273 272 274 275
266 265 264 262 258 263 262 266 264 264 264 265 267 268 269 269 270 271 273 274 274 275
268 266 265 265 264 263 264 263 263 263 264 265 266 267 268 269 270 270 272 274 274 275
267 266 266 265 265 264 263 264 264 263 264 265 265 267 267 267 269 270 270 272 273 274
267 266 264 263 264 264 263 263 263 263 263 264 265 266 266 267 267 268 269 271 272 273
264 262 263 261 261 262 262 261 260 262 261 263 264 265 266 267 268 269 270 271 272 273
261 259 258 258 258 259 260 260 261 260 261 262 263 266 267 269 269 270 272 274 274 275
258 254 254 255 256 256 256 258 258 259 260 261 262 266 267 270 271 272 274 275 276 276
255 256 255 256 255 254 256 255 256 256 257 259 263 270 274 275 273 274 275 274 275 275
256 257 255 254 253 255 255 252 255 256 256 257 260 270 274 276 275 274 273 274 274 274
256 256 255 252 253 253 253 255 257 257 256 257 260 270 273 275 272 272 272 272 272 272
253 256 254 255 254 254 251 254 255 257 258 258 259 268 272 272 268 268 269 271 272 272
256 253 254 254 254 252 250 256 258 259 259 262 262 267 270 270 267 266 268 270 272 275
256 253 253 253 250 251 253 256 256 258 258 258 259 260 270 272 268 268 268 268 269 272
Wind_Speed
3 2 1 1 1 1 1 3 4 5 4 6 6 7 6 5 5 5 5 7 6 6
3 2 1 1 1 1 2 3 3 4 4 5 6 7 7 5 7 6 7 7 7 6
4 3 2 2 2 3 3 3 4 4 5 6 6 6 6 6 7 7 6 6 8 8
4 3 2 2 3 3 4 5 5 6 6 7 6 7 6 6 8 7 8 7 8 9
3 3 3 3 4 4 4 4 5 5 6 6 7 6 6 8 8 8 9 10 9 10
4 3 4 4 4 5 5 5 5 4 5 6 7 7 7 8 8 8 9 10 11 12
5 5 4 3 4 4 4 5 5 5 6 6 7 9 10 9 9 10 11 12 12 12
3 3 3 3 4 5 4 5 5 6 6 6 7 8 8 10 11 12 13 13 12 12
1 2 3 4 4 4 5 6 5 5 6 7 7 17 21 19 12 14 14 14 13 12
3 4 3 4 4 5 6 3 6 7 6 8 9 20 23 23 13 13 14 15 14 14
3 4 4 3 5 5 4 5 6 8 7 8 10 22 24 25 15 13 14 14 15 16
2 4 4 5 6 5 4 4 5 6 8 9 12 21 24 22 12 14 16 14 15 15
4 4 5 6 7 4 3 6 7 9 8 15 14 21 25 21 10 14 12 14 16 25
4 5 6 6 3 4 6 6 7 10 10 10 11 14 25 25 13 10 12 13 12 12
Wind_Direction
184 198 193 173 7 351 337 319 325 351 345 343 337 334 327 323 322 321 317 296 284 293
213 246 287 323 228 292 287 326 354 331 338 340 338 339 332 317 307 298 293 287 284 275
216 223 248 272 329 330 321 324 336 344 351 343 337 331 319 309 299 296 288 294 299 294
221 239 264 300 322 328 320 337 342 344 340 336 326 315 304 297 293 306 300 291 289 293
225 238 272 295 310 321 318 325 321 324 320 308 303 301 298 301 302 297 300 303 298 294
242 254 271 284 299 309 309 300 297 299 289 296 298 297 293 284 283 282 286 286 285 283
231 230 242 281 291 290 288 284 285 276 278 281 288 297 296 293 288 284 283 278 277 279
232 235 265 279 291 293 289 279 272 278 278 274 281 285 282 278 280 284 285 281 282 281
286 290 278 296 296 291 281 275 260 267 269 281 276 288 293 294 287 282 284 288 286 280
300 304 296 298 300 287 280 269 276 276 271 281 280 293 294 292 288 287 283 280 280 285
328 309 309 305 290 279 264 276 288 286 269 269 280 295 297 296 289 281 278 276 275 273
292 305 305 301 290 279 274 276 265 268 279 277 282 293 293 296 291 280 276 274 270 264
294 278 286 277 282 255 244 273 283 284 273 274 290 293 295 294 276 274 276 275 271 272
286 276 267 272 261 267 277 275 278 282 282 271 267 279 293 294 283 273 275 271 272 266